Regional Weather Roundup
Issued by NWS Wakefield, VA

Home | Current Version | Previous Version | Graphics & Text | Print | Product List | Glossary On
Versions: 1 2 3 4 5 6 7 8 9 10 11 12 13 14 15 16 17 18 19 20 21 22 23 24 25 26 27
000
ASUS41 KAKQ 281115
RWRAKQ

REGIONAL WEATHER ROUNDUP
NATIONAL WEATHER SERVICE WAKEFIELD VA
700 AM EDT WED SEP 28 2016

Note: "fair" indicates few or no clouds below 12,000 feet with no
significant weather and/or obstructions to visibility. * = Denotes
station may not report precipitation (e.g., rain,snow,etc.),
thunder or fog.

VAZ042-051-052>054-056-281200-
NORTHERN VIRGINIA

CITY           SKY/WX    TMP DP  RH WIND       PRES   REMARKS
WASH NATIONAL  LGT RAIN  66  65  96 NE9       29.96S
DULLES         CLOUDY    63  61  93 E8        29.95F
FORT BELVOIR   LGT RAIN  64  63  94 VRB2      29.95R
QUANTICO       TSTM      68  64  88 E14G21    29.94S FOG
FREDERICKSBRG* HVY RAIN  66  66 100 N8        29.93S
STAFFORD*      RAIN      65  65 100 NE5       29.98R
WARRENTON      CLOUDY    66  62  86 NE6       29.95R FOG
CULPEPER*      LGT RAIN  65  65 100 CALM      29.96S
MANASSAS*      LGT RAIN  66  66 100 NE5       29.94F FOG
LEESBURG*      CLOUDY    63  63 100 NE3       29.97F
WINCHESTER     CLOUDY    61  59  94 NW5       29.97S FOG
FRONT ROYAL*   CLOUDY    59  59 100 N3        29.95S
LURAY*         FOG      N/A N/A N/A NE3       29.96S VSB 1/4
$$

VAZ048-049-060>072-079>083-281200-
CENTRAL AND SOUTH CENTRAL VIRGINIA

CITY           SKY/WX    TMP DP  RH WIND       PRES   REMARKS
RICHMOND       CLOUDY    68  67  96 VRB3      29.93R
CHESTERFIELD*  CLOUDY    70  55  60 S5        29.95R
PETERSBURG*    CLOUDY   N/A N/A N/A CALM      29.94R FOG
HANOVER        CLOUDY    69  67  93 CALM      29.95R
TAPPAHANNOCK*  LGT RAIN  70  70 100 E3        29.94S
QUINTON*       CLOUDY    68  68 100 CALM      29.93R
CHARLOTTSVILLE FOG       66  64  93 NE8       29.94R VSB 1
GORDONSVILLE*  CLOUDY    64  64 100 CALM      29.94R
ORANGE*          N/A     64  64 100 CALM      29.96S
LOUISA*        CLOUDY    70  70 100 N3        29.93R FOG
BUMPASS*       CLOUDY    67  67 100 CALM      29.93R
FARMVILLE*     FOG       70  70  99 CALM      29.91S VSB 1/2
CREWE*         CLOUDY    68  68 100 CALM      29.91F
FORT PICKETT*  CLOUDY    68  64  87 SE6       29.91F
CHASE CITY*    PTSUNNY   67  65  95 CALM      29.92R
CLARKSVILLE*   CLOUDY    66  66 100 CALM      29.91F VSB 1
SOUTH HILL*    CLOUDY    68  68 100 S9        29.98F
LAWRENCEVILLE* CLOUDY    69  68  97 CALM      29.93S
EMPORIA*       CLOUDY    68  68 100 CALM      29.94S FOG
$$

VAZ088>098-281200-
SOUTHEAST VIRGINIA

CITY           SKY/WX    TMP DP  RH WIND       PRES   REMARKS
NORFOLK        MOCLDY    68  67  96 CALM      29.94R
VIRGINIA BEACH MOCLDY    65  63  93 CALM      29.93R FOG
NORFOLK NAVAL  MOCLDY    68  66  93 S3        29.95R
WEST POINT*    PTCLDY    66  66  99 E5        29.95R
SALUDA*        FAIR      67  67 100 CALM      29.94R
NEWPORT NEWS   PTCLDY    64  63  96 E5        29.94R FOG
LANGLEY AFB    PTCLDY    66  66 100 W2        29.94R
FORT EUSTIS    PTCLDY    68  67  96 E5        29.91R
WILLIAMSBURG*  PTCLDY    70  70 100 S5        29.95R
HR EXEC AP*    FAIR      64  63  94 CALM      29.95S
FRANKLIN*      CLOUDY    66  65  97 CALM      29.94R
US460-WAKEFLD  MOCLDY    68  66  93 CALM      29.93S
$$

VAZ020-022-025-037-045-281200-
WEST CENTRAL AND SOUTHWEST VIRGINIA

CITY           SKY/WX    TMP DP  RH WIND       PRES   REMARKS
STAUNTON*      CLOUDY    59  56  91 CALM      29.98R
WAYNESBORO*    CLOUDY    60  56  85 CALM      29.97R
HOT SPRINGS VA CLEAR     56  41  55 SE3       30.02R
LYNCHBURG      CLOUDY    67  66  97 E3        29.95R
DANVILLE       CLOUDY    66  66 100 CALM      29.93R
SOUTH BOSTON*  CLOUDY    65  64  96 CALM      29.93S
MARTINSVILLE   CLOUDY    65  64  97 CALM      29.96R FOG
ROANOKE        MOCLDY    61  53  75 NE3       29.97R
BLACKSBURG     MOCLDY    49  49 100 CALM      30.01S
DUBLIN*        FOG       53  53 100 CALM      30.00S VSB 1/4
MARION*        FOG       51  50  96 CALM      30.01S VSB 1/4
HILLSVILLE*    CLOUDY    56  56 100 CALM      29.98S FOG
RICHLANDS*     FAIR      50  46  87 CALM      29.98S
WISE*          CLEAR     52  36  54 CALM      30.00S
ABINGDON*      FOG       57  57  99 CALM      29.97S VSB 3/4
$$

MDZ021>025-VAZ099-100-281200-
SOUTHERN MARYLAND AND THE DELMARVA PENINSULA

CITY           SKY/WX    TMP DP  RH WIND       PRES   REMARKS
PATUXENT RIVER LGT RAIN  68  65  90 E15       29.94S
BAY BRIDGE APT MOCLDY    63  63 100 MISG      29.98R FOG
LEONARDTOWN    CLOUDY    66  64  94 E7        29.96S
DOVER          PTCLDY    63  63 100 NE9       29.98R
GEORGETOWN     MOCLDY    65  61  87 NE6       29.99R
EASTON         MOCLDY    63  59  88 NE7       30.01R FOG
CAMBRIDGE      PTCLDY    63  61  94 NE5       29.96S
SALISBURY      MOCLDY    66  65  96 NE5       29.97R
OCEAN CITY     CLOUDY    72  65  78 NE10      29.97R
WALLOPS ISLAND CLOUDY    71  69  93 NE13      29.96R
ACCOMACK*      CLOUDY    67  65  93 E6        29.95S
$$

NCZ012>017-030>032-281200-
NORTH CENTRAL AND EASTERN NORTH CAROLINA

CITY           SKY/WX    TMP DP  RH WIND       PRES   REMARKS
ROANOKE RAPIDS PTSUNNY   68  68 100 CALM      29.93R FOG
RALEIGH        CLOUDY    70  68  93 S3        29.93R
ELIZABETH CITY PTCLDY    63  63 100 CALM      29.95R FOG
AHOSKIE*       RAIN      66  65  97 S3        29.94R
EDENTON*       CLOUDY    67  67 100 CALM      29.94S
CURRITUCK*     NOT AVBL
KILL DEVIL HLS PTCLDY    71  71 100 CALM      29.92R
MANTEO         MOCLDY    70  70 100 N3        29.93
CAPE HATTERAS  CLEAR     74  71  91 NW3       29.93R
TARBORO*       FAIR      68  68  99 CALM      29.94R FOG
GOLDSBORO      PTCLDY    69  69 100 SE2       29.91S
WASHINGTON     CLEAR     65  65  99 CALM      29.93S
GREENVILLE     CLOUDY    68  68 100 CALM      29.95S
NEW BERN       PTCLDY    68  67  96 CALM      29.95R
WILMINGTON     CLEAR     67  66  97 NE3       29.93R
$$

VAZ048-281200-
ELSEWHERE

CITY           SKY/WX    TMP DP  RH WIND       PRES   REMARKS
HARRISBURG PA  MOCLDY    55  54  96 N5        30.01R
BALTIMORE      CLOUDY    63  62  97 NE9       29.98S FOG
ANNAPOLIS      CLOUDY    67  64  90 E8        29.97S
ANDREWS AFB    CLOUDY    64  63  94 E12       29.95S
PHILADELPHIA   MOCLDY    59  57  93 NE8       30.02R
HENDERSON NC   CLOUDY    67  66  97 S5        29.93F FOG
GREENSBORO     MOCLDY    67  67 100 SW8       29.93R FOG
ROCKY MOUNT    PTCLDY    69  69 100 CALM      29.93R
$$

VAZ100-281200-
MARINE

STATION/POSITION TIME  TEMP    WIND        PRES    WAVE   SWELL
                       AIR SEA DIR/SP/G            HT/PER HT/PER
                 (UTC) (F)     (DEG/KT/KT) (MB)    (FT/S) (FT/S)
BRANDYWINE LGT   1048   67      70/ 19/ 21   N/A
CAPE MAY NJ      1048   63 71   60/  5/ 10 1014.7S
LEWES DE         1048   69 72   70/ 16/ 17 1014.9R
OCEAN-CITY-INLET 1048   71 73   80/ 10/ 14 1015.2R
WACHAPREAGUE VA  1048   70 73  350/  3/  4 1014.2R
THOMAS POINT MD  1100   65 74   70/ 14/ 16 1016.0F
GOOSES REEF MD   1050   69     100/ 16/ 19 1014.2F
COVE POINT MD    1048   67     120/ 13/ 18 1014.5F
SOLOMONS ISLAND  1048   69 75   80/ 13/ 15   N/A
BISHOPS HEAD MD  1048   68 70   60/ 10/ 13 1014.8R
PINEY POINT MD   1042          100/ 14/ 17   N/A
POTOMAC MD       1050   71      90/ 16/ 17 1013.1R
CAMBRIDGE MD     1048   67 74   60/ 12/ 14 1013.6R
LEWISETTA VA     1048   72 73  100/ 15/ 18 1013.1S
RAPPAHANNOCK LGT 1042           80/  8/  9 1014.4R
STINGRAY PT      1050   74      70/  2/  4 1014.2R
YORK RVR RNG VA  1048   73     160/  5/  6 1013.3R
YORKTOWN VA      1048   70 76  220/  2/  2 1013.5R
JAMESTOWN VA     1050   72     150/  6/  8   N/A
DOMINION TERM VA 1048   72     160/  6/  7 1013.6R
KIPTOPEKE VA     1042      75   80/  2/  2   N/A
CHES BAY BRIDGE  1048   72 76  150/  2/  3 1013.6R
CAPE HENRY VA    1048   72      CALM  /  2   N/A
WILLOUBY STN VA  1048   71     140/  2/  7   N/A
CAPE HENRY BUOY  1042      75                N/A     4/ 7   2/11
1ST LANDING BUOY 1050   73     190/  2/  4 1013.6R
CAPE CHARLES BUO 1026      76                N/A     3/ 7   2/12
OFFSHORE WE BUOY 1021      75                N/A     4/11   2/11
64NM E OF VA BCH 1050   73 74  360/ 12/ 14 1013.0R   5/ 8   5/ 8
DUCK PIER NC     1048   73 76  350/  5/  6 1013.0R
44056 DUCK FRF   1041      76                N/A     4/ 7   2/12
OREGON INLET NC  1048   71 76  360/  3/  5 1013.4R
HATTERAS NC      1048   74 77  330/  7/  8 1013.2R
DIAMOND SHLS NC  1050   76 84  330/ 10/ 14 1012.9R   4/ 7   3/ 7
CAPE LOOKOUT NC  1000   73     360/  3/  4 1013.2R
$$




USA.gov is the U.S. government's official web portal to all federal, state and local government web resources and services.